| time (UTC) | temp F | wind direction | speed MPH | gust MPH | rain 1hr in | rain 24hr in | rain mn in | humidity % | barometer mb |
| 20260510013056 | 54 | 3 | 0.0 | 1.0 | 0.00 | 0.04 | 0.04 | 39 | 1012.4 |
| 20260510012821 | 54 | 11 | 0.0 | 1.0 | 0.00 | 0.04 | 0.04 | 38 | 1012.4 |
| 20260510012050 | 55 | 18 | 0.0 | 3.0 | 0.00 | 0.04 | 0.04 | 38 | 1012.3 |
| 20260510011547 | 55 | 34 | 0.0 | 3.0 | 0.00 | 0.04 | 0.04 | 37 | 1012.1 |
| 20260510011047 | 55 | 339 | 0.0 | 2.0 | 0.00 | 0.04 | 0.04 | 39 | 1012.1 |
| 20260510010818 | 55 | 150 | 0.0 | 3.0 | 0.00 | 0.04 | 0.04 | 37 | 1012.0 |
| 20260510010048 | 55 | 132 | 0.0 | 4.0 | 0.00 | 0.04 | 0.04 | 38 | 1012.0 |
| 20260510005548 | 56 | 210 | 0.0 | 5.0 | 0.00 | 0.04 | 0.04 | 39 | 1011.9 |
| 20260510005047 | 56 | 155 | 0.0 | 8.0 | 0.00 | 0.04 | 0.04 | 36 | 1011.8 |
| 20260510004547 | 57 | 304 | 0.0 | 8.0 | 0.00 | 0.04 | 0.04 | 38 | 1011.7 |
| 20260510004319 | 57 | 122 | 0.0 | 4.0 | 0.00 | 0.04 | 0.04 | 38 | 1011.7 |
| 20260510003818 | 58 | 136 | 1.0 | 4.0 | 0.00 | 0.04 | 0.04 | 37 | 1011.6 |
| 20260510003318 | 58 | 288 | 1.0 | 4.0 | 0.00 | 0.04 | 0.04 | 35 | 1011.6 |
| 20260510002547 | 59 | 0 | 1.0 | 6.0 | 0.00 | 0.04 | 0.04 | 36 | 1011.5 |
| 20260510002047 | 59 | 158 | 1.0 | 6.0 | 0.00 | 0.04 | 0.04 | 35 | 1011.4 |
| 20260510001547 | 60 | 124 | 1.0 | 5.0 | 0.00 | 0.04 | 0.04 | 35 | 1011.5 |
| 20260510001047 | 60 | 49 | 1.0 | 7.0 | 0.00 | 0.04 | 0.04 | 34 | 1011.4 |
| 20260510000547 | 60 | 141 | 1.0 | 7.0 | 0.00 | 0.04 | 0.04 | 33 | 1011.2 |
| 20260510000319 | 60 | 106 | 1.0 | 7.0 | 0.00 | 0.04 | 0.04 | 33 | 1011.1 |
| 20260509235543 | 60 | 4 | 1.0 | 6.0 | 0.00 | 0.04 | 0.04 | 31 | 1011.2 |
| 20260509235036 | 61 | 80 | 1.0 | 6.0 | 0.00 | 0.04 | 0.04 | 30 | 1011.1 |
| 20260509234531 | 61 | 318 | 0.0 | 4.0 | 0.00 | 0.04 | 0.04 | 30 | 1011.1 |
| 20260509234255 | 62 | 5 | 0.0 | 6.0 | 0.00 | 0.04 | 0.04 | 31 | 1011.0 |
| 20260509233518 | 62 | 13 | 1.0 | 6.0 | 0.00 | 0.04 | 0.04 | 29 | 1011.0 |
| 20260509233244 | 62 | 23 | 1.0 | 4.0 | 0.00 | 0.04 | 0.04 | 29 | 1010.9 |
| 20260509232506 | 62 | 41 | 1.0 | 4.0 | 0.00 | 0.04 | 0.04 | 29 | 1010.9 |
| 20260509232232 | 62 | 66 | 1.0 | 4.0 | 0.00 | 0.04 | 0.04 | 33 | 1010.8 |
| 20260509231457 | 62 | 7 | 1.0 | 6.0 | 0.00 | 0.04 | 0.04 | 30 | 1010.7 |
| 20260509231451 | 61 | 97 | 1.0 | 6.0 | 0.00 | 0.04 | 0.04 | 31 | 1010.7 |
| 20260509230442 | 62 | 5 | 1.0 | 10.0 | 0.00 | 0.04 | 0.04 | 32 | 1010.8 |
| 20260509225936 | 63 | 309 | 1.0 | 10.0 | 0.00 | 0.04 | 0.04 | 31 | 1010.5 |
| 20260509225430 | 62 | 351 | 1.0 | 6.0 | 0.00 | 0.04 | 0.04 | 31 | 1010.7 |
| 20260509224923 | 62 | 339 | 1.0 | 6.0 | 0.00 | 0.04 | 0.04 | 29 | 1010.6 |
| 20260509224418 | 63 | 224 | 1.0 | 6.0 | 0.00 | 0.04 | 0.04 | 29 | 1010.7 |
| 20260509223912 | 62 | 239 | 1.0 | 5.0 | 0.00 | 0.04 | 0.04 | 33 | 1010.5 |
| 20260509223407 | 62 | 22 | 1.0 | 6.0 | 0.00 | 0.04 | 0.04 | 31 | 1010.5 |
| 20260509222900 | 62 | 125 | 1.0 | 6.0 | 0.00 | 0.04 | 0.04 | 32 | 1010.5 |
| 20260509222353 | 63 | 110 | 1.0 | 6.0 | 0.00 | 0.04 | 0.04 | 29 | 1010.5 |
| 20260509221848 | 63 | 117 | 1.0 | 6.0 | 0.00 | 0.04 | 0.04 | 32 | 1010.5 |
| 20260509221613 | 64 | 25 | 1.0 | 8.0 | 0.00 | 0.04 | 0.04 | 32 | 1010.5 |
| 20260509220835 | 64 | 120 | 1.0 | 8.0 | 0.00 | 0.04 | 0.04 | 34 | 1010.4 |
| 20260509220330 | 64 | 27 | 1.0 | 6.0 | 0.00 | 0.04 | 0.04 | 32 | 1010.4 |
| 20260509215824 | 63 | 224 | 1.0 | 5.0 | 0.00 | 0.04 | 0.04 | 35 | 1010.2 |
| 20260509215318 | 63 | 126 | 1.0 | 5.0 | 0.00 | 0.04 | 0.04 | 31 | 1010.3 |
| 20260509214812 | 63 | 160 | 2.0 | 7.0 | 0.00 | 0.04 | 0.04 | 37 | 1010.3 |
| 20260509214305 | 64 | 54 | 2.0 | 7.0 | 0.00 | 0.04 | 0.04 | 31 | 1010.3 |
| 20260509213759 | 64 | 139 | 1.0 | 5.0 | 0.00 | 0.04 | 0.04 | 31 | 1010.2 |
| 20260509213255 | 64 | 169 | 1.0 | 5.0 | 0.00 | 0.04 | 0.04 | 33 | 1010.2 |
| 20260509213250 | 63 | 4 | 1.0 | 6.0 | 0.00 | 0.04 | 0.04 | 30 | 1010.2 |
| 20260509212242 | 63 | 333 | 1.0 | 6.0 | 0.00 | 0.04 | 0.04 | 29 | 1010.1 |
| 20260509211735 | 65 | 1 | 1.0 | 6.0 | 0.00 | 0.04 | 0.04 | 30 | 1010.1 |
| 20260509211230 | 64 | 166 | 1.0 | 6.0 | 0.00 | 0.04 | 0.04 | 30 | 1010.1 |
| 20260509210724 | 64 | 259 | 1.0 | 8.0 | 0.00 | 0.04 | 0.04 | 32 | 1010.1 |
| 20260509210218 | 63 | 5 | 1.0 | 8.0 | 0.00 | 0.04 | 0.04 | 32 | 1010.0 |
| 20260509205711 | 63 | 100 | 1.0 | 8.0 | 0.00 | 0.04 | 0.04 | 31 | 1010.1 |
| 20260509205206 | 62 | 139 | 2.0 | 8.0 | 0.00 | 0.04 | 0.04 | 31 | 1009.9 |
| 20260509204702 | 63 | 345 | 1.0 | 7.0 | 0.00 | 0.04 | 0.04 | 30 | 1009.8 |
| 20260509204657 | 62 | 13 | 1.0 | 9.0 | 0.00 | 0.04 | 0.04 | 31 | 1009.9 |
| 20260509203918 | 63 | 162 | 1.0 | 9.0 | 0.00 | 0.04 | 0.04 | 31 | 1009.9 |
| 20260509203142 | 63 | 347 | 1.0 | 6.0 | 0.00 | 0.04 | 0.04 | 33 | 1009.8 |
| 20260509202636 | 63 | 333 | 1.0 | 6.0 | 0.00 | 0.04 | 0.04 | 32 | 1009.8 |
| 20260509202130 | 63 | 5 | 1.0 | 6.0 | 0.00 | 0.04 | 0.04 | 34 | 1009.7 |
| 20260509201624 | 62 | 329 | 1.0 | 4.0 | 0.00 | 0.04 | 0.04 | 35 | 1009.8 |
| 20260509201118 | 61 | 323 | 1.0 | 9.0 | 0.00 | 0.04 | 0.04 | 31 | 1009.6 |
| 20260509200612 | 62 | 351 | 2.0 | 9.0 | 0.00 | 0.04 | 0.04 | 34 | 1009.7 |
| 20260509200105 | 62 | 32 | 3.0 | 8.0 | 0.00 | 0.04 | 0.04 | 31 | 1009.7 |
| 20260509195600 | 63 | 149 | 3.0 | 9.0 | 0.00 | 0.04 | 0.04 | 31 | 1009.7 |
| 20260509195054 | 63 | 195 | 2.0 | 9.0 | 0.00 | 0.04 | 0.04 | 36 | 1009.5 |
| 20260509194548 | 62 | 162 | 1.0 | 7.0 | 0.00 | 0.04 | 0.04 | 38 | 1009.6 |
| 20260509194041 | 62 | 7 | 1.0 | 6.0 | 0.00 | 0.04 | 0.04 | 32 | 1009.5 |
| 20260509193536 | 63 | 89 | 1.0 | 6.0 | 0.00 | 0.04 | 0.04 | 33 | 1009.5 |
| 20260509193030 | 62 | 276 | 1.0 | 6.0 | 0.00 | 0.04 | 0.04 | 36 | 1009.2 |
| 20260509192524 | 62 | 333 | 1.0 | 6.0 | 0.00 | 0.04 | 0.04 | 38 | 1009.5 |
| 20260509192018 | 61 | 1 | 3.0 | 9.0 | 0.00 | 0.04 | 0.04 | 33 | 1009.2 |
| 20260509191515 | 61 | 333 | 2.0 | 9.0 | 0.00 | 0.04 | 0.04 | 33 | 1009.2 |
| 20260509191507 | 62 | 345 | 2.0 | 8.0 | 0.00 | 0.04 | 0.04 | 35 | 1009.1 |
| 20260509190731 | 62 | 113 | 2.0 | 8.0 | 0.00 | 0.04 | 0.04 | 38 | 1009.1 |
| 20260509185953 | 62 | 158 | 1.0 | 9.0 | 0.00 | 0.04 | 0.04 | 43 | 1009.2 |
| 20260509185448 | 62 | 104 | 2.0 | 9.0 | 0.00 | 0.04 | 0.04 | 34 | 1009.1 |
| 20260509184942 | 62 | 29 | 2.0 | 8.0 | 0.00 | 0.04 | 0.04 | 34 | 1009.0 |
| 20260509184436 | 62 | 207 | 1.0 | 8.0 | 0.00 | 0.04 | 0.04 | 36 | 1009.0 |
| 20260509183930 | 61 | 153 | 1.0 | 6.0 | 0.00 | 0.04 | 0.04 | 37 | 1008.9 |
| 20260509183424 | 61 | 339 | 1.0 | 7.0 | 0.00 | 0.04 | 0.04 | 36 | 1008.9 |
| 20260509182918 | 61 | 335 | 1.0 | 9.0 | 0.00 | 0.04 | 0.04 | 37 | 1008.9 |
| 20260509182643 | 61 | 8 | 2.0 | 9.0 | 0.00 | 0.04 | 0.04 | 35 | 1008.8 |
| 20260509181906 | 61 | 0 | 3.0 | 9.0 | 0.00 | 0.04 | 0.04 | 39 | 1008.9 |
| 20260509181632 | 61 | 221 | 2.0 | 9.0 | 0.00 | 0.04 | 0.04 | 41 | 1008.6 |
| 20260509180854 | 61 | 302 | 1.0 | 8.0 | 0.00 | 0.04 | 0.04 | 41 | 1008.8 |
| 20260509180347 | 60 | 347 | 1.0 | 5.0 | 0.00 | 0.04 | 0.04 | 42 | 1008.9 |
| 20260509175842 | 60 | 345 | 2.0 | 6.0 | 0.00 | 0.04 | 0.04 | 43 | 1008.9 |
| 20260509175336 | 60 | 78 | 2.0 | 7.0 | 0.00 | 0.04 | 0.04 | 39 | 1008.9 |
| 20260509175102 | 60 | 0 | 2.0 | 8.0 | 0.00 | 0.04 | 0.04 | 41 | 1008.8 |
| 20260509174324 | 60 | 122 | 1.0 | 8.0 | 0.00 | 0.04 | 0.04 | 44 | 1008.6 |
| 20260509173818 | 60 | 330 | 1.0 | 7.0 | 0.00 | 0.04 | 0.04 | 44 | 1008.7 |
| 20260509173312 | 59 | 197 | 1.0 | 7.0 | 0.00 | 0.04 | 0.04 | 46 | 1008.6 |
| 20260509173043 | 59 | 86 | 1.0 | 7.0 | 0.00 | 0.04 | 0.04 | 43 | 1008.6 |
| 20260509172545 | 59 | 17 | 1.0 | 7.0 | 0.00 | 0.04 | 0.04 | 40 | 1008.6 |
| 20260509171813 | 59 | 343 | 1.0 | 6.0 | 0.00 | 0.04 | 0.04 | 49 | 1008.6 |
| 20260509171312 | 58 | 149 | 1.0 | 5.0 | 0.00 | 0.04 | 0.04 | 48 | 1008.5 |
| 20260509170811 | 58 | 302 | 1.0 | 6.0 | 0.00 | 0.04 | 0.04 | 50 | 1008.5 |
| 20260509170308 | 58 | 80 | 1.0 | 8.0 | 0.00 | 0.04 | 0.04 | 48 | 1008.3 |
| 20260509165809 | 57 | 106 | 1.0 | 8.0 | 0.00 | 0.04 | 0.04 | 49 | 1008.3 |
| 20260509165540 | 58 | 339 | 1.0 | 6.0 | 0.00 | 0.04 | 0.04 | 46 | 1008.3 |
| 20260509164809 | 58 | 352 | 1.0 | 5.0 | 0.00 | 0.04 | 0.04 | 45 | 1008.3 |
| 20260509164542 | 57 | 22 | 1.0 | 4.0 | 0.00 | 0.04 | 0.04 | 50 | 1008.3 |
| 20260509163810 | 57 | 25 | 1.0 | 4.0 | 0.00 | 0.04 | 0.04 | 45 | 1008.3 |
| 20260509163309 | 56 | 27 | 1.0 | 5.0 | 0.00 | 0.04 | 0.04 | 47 | 1008.2 |
| 20260509162811 | 56 | 14 | 1.0 | 5.0 | 0.00 | 0.04 | 0.04 | 50 | 1008.1 |
| 20260509162312 | 56 | 43 | 1.0 | 6.0 | 0.00 | 0.04 | 0.04 | 48 | 1008.1 |
| 20260509161811 | 56 | 340 | 1.0 | 6.0 | 0.00 | 0.04 | 0.04 | 54 | 1008.0 |
| 20260509161544 | 55 | 135 | 1.0 | 5.0 | 0.00 | 0.04 | 0.04 | 52 | 1008.0 |
| 20260509160807 | 55 | 66 | 1.0 | 6.0 | 0.00 | 0.04 | 0.04 | 53 | 1008.0 |
| 20260509160532 | 56 | 4 | 1.0 | 6.0 | 0.00 | 0.04 | 0.04 | 53 | 1007.8 |
| 20260509155754 | 56 | 351 | 1.0 | 5.0 | 0.00 | 0.04 | 0.04 | 50 | 1007.7 |
| 20260509155249 | 56 | 91 | 1.0 | 5.0 | 0.00 | 0.04 | 0.04 | 57 | 1007.7 |
| 20260509154742 | 56 | 131 | 1.0 | 5.0 | 0.00 | 0.04 | 0.04 | 53 | 1007.6 |
| 20260509154237 | 56 | 311 | 1.0 | 4.0 | 0.00 | 0.04 | 0.04 | 56 | 1007.5 |
| 20260509154001 | 56 | 105 | 1.0 | 6.0 | 0.00 | 0.04 | 0.04 | 54 | 1007.4 |
| 20260509153458 | 56 | 356 | 1.0 | 8.0 | 0.00 | 0.04 | 0.04 | 52 | 1007.4 |
| 20260509152719 | 57 | 9 | 1.0 | 8.0 | 0.00 | 0.04 | 0.04 | 55 | 1007.3 |
| 20260509152213 | 56 | 133 | 1.0 | 5.0 | 0.00 | 0.04 | 0.04 | 59 | 1007.3 |
| 20260509151707 | 56 | 325 | 1.0 | 5.0 | 0.00 | 0.04 | 0.04 | 60 | 1007.2 |
| 20260509151438 | 55 | 105 | 1.0 | 4.0 | 0.00 | 0.04 | 0.04 | 62 | 1007.0 |
| 20260509151201 | 55 | 342 | 1.0 | 4.0 | 0.00 | 0.04 | 0.04 | 63 | 1007.0 |
| 20260509150148 | 54 | 27 | 1.0 | 7.0 | 0.00 | 0.04 | 0.04 | 62 | 1006.9 |
| 20260509145642 | 54 | 181 | 1.0 | 7.0 | 0.00 | 0.04 | 0.04 | 60 | 1006.9 |
| 20260509145137 | 54 | 58 | 1.0 | 4.0 | 0.00 | 0.04 | 0.04 | 64 | 1006.7 |
| 20260509144631 | 53 | 345 | 1.0 | 4.0 | 0.00 | 0.04 | 0.04 | 64 | 1006.7 |
| 20260509144355 | 53 | 356 | 1.0 | 5.0 | 0.00 | 0.04 | 0.04 | 65 | 1006.7 |
| 20260509143850 | 53 | 345 | 1.0 | 5.0 | 0.00 | 0.04 | 0.04 | 66 | 1006.6 |
| 20260509143113 | 52 | 20 | 1.0 | 4.0 | 0.00 | 0.04 | 0.04 | 68 | 1006.6 |
| 20260509142607 | 52 | 345 | 1.0 | 6.0 | 0.00 | 0.04 | 0.04 | 71 | 1006.5 |
| 20260509142100 | 51 | 356 | 2.0 | 6.0 | 0.00 | 0.04 | 0.04 | 71 | 1006.5 |
| 20260509141825 | 51 | 9 | 2.0 | 7.0 | 0.00 | 0.04 | 0.04 | 72 | 1006.4 |
| 20260509141046 | 50 | 356 | 2.0 | 8.0 | 0.00 | 0.04 | 0.04 | 75 | 1006.4 |
| 20260509140540 | 50 | 347 | 2.0 | 8.0 | 0.00 | 0.04 | 0.04 | 77 | 1006.4 |
| 20260509140039 | 50 | 13 | 2.0 | 7.0 | 0.00 | 0.04 | 0.04 | 80 | 1006.4 |
| 20260509135538 | 49 | 356 | 1.0 | 6.0 | 0.00 | 0.04 | 0.04 | 84 | 1006.3 |
| 20260509135041 | 49 | 13 | 1.0 | 4.0 | 0.00 | 0.04 | 0.04 | 91 | 1006.2 |
| 20260509134539 | 48 | 347 | 1.0 | 4.0 | 0.00 | 0.04 | 0.04 | 94 | 1006.2 |
| 20260509134039 | 48 | 352 | 1.0 | 4.0 | 0.00 | 0.04 | 0.04 | 96 | 1006.1 |
| 20260509133540 | 48 | 337 | 1.0 | 4.0 | 0.00 | 0.04 | 0.04 | 96 | 1006.1 |
| 20260509133039 | 48 | 74 | 0.0 | 4.0 | 0.00 | 0.04 | 0.04 | 96 | 1006.0 |
| 20260509132808 | 48 | 23 | 0.0 | 2.0 | 0.00 | 0.04 | 0.04 | 96 | 1006.0 |
| 20260509132659 | 47 | 32 | 0.0 | 3.0 | 0.00 | 0.04 | 0.04 | 96 | 1005.9 |
| 20260509131534 | 47 | 105 | 0.0 | 3.0 | 0.00 | 0.04 | 0.04 | 96 | 1005.8 |
| 20260509131032 | 47 | 110 | 0.0 | 3.0 | 0.00 | 0.04 | 0.04 | 96 | 1005.7 |
| 20260509130530 | 47 | 107 | 0.0 | 1.0 | 0.00 | 0.04 | 0.04 | 97 | 1005.5 |
| 20260509130032 | 47 | 351 | 0.0 | 1.0 | 0.00 | 0.04 | 0.04 | 97 | 1005.4 |
| 20260509125529 | 47 | 107 | 0.0 | 1.0 | 0.00 | 0.04 | 0.04 | 96 | 1005.3 |
| 20260509125031 | 47 | 127 | 0.0 | 1.0 | 0.00 | 0.04 | 0.04 | 96 | 1005.3 |
| 20260509124530 | 47 | 56 | 0.0 | 1.0 | 0.00 | 0.04 | 0.04 | 96 | 1005.2 |
| 20260509124028 | 47 | 100 | 0.0 | 1.0 | 0.00 | 0.04 | 0.04 | 97 | 1005.2 |
| 20260509123528 | 47 | 205 | 0.0 | 2.0 | 0.00 | 0.04 | 0.04 | 97 | 1005.2 |
| 20260509123022 | 47 | 293 | 0.0 | 2.0 | 0.00 | 0.04 | 0.04 | 97 | 1005.1 |
| 20260509122516 | 47 | 23 | 0.0 | 1.0 | 0.00 | 0.04 | 0.04 | 97 | 1005.0 |
| 20260509122009 | 47 | 75 | 0.0 | 1.0 | 0.00 | 0.04 | 0.04 | 97 | 1004.8 |
| 20260509121504 | 47 | 116 | 0.0 | 2.0 | 0.00 | 0.04 | 0.04 | 96 | 1004.8 |
| 20260509120958 | 46 | 75 | 0.0 | 2.0 | 0.00 | 0.04 | 0.04 | 96 | 1004.7 |
| 20260509120454 | 46 | 114 | 0.0 | 3.0 | 0.00 | 0.04 | 0.04 | 96 | 1004.7 |
| 20260509115954 | 46 | 131 | 0.0 | 3.0 | 0.00 | 0.04 | 0.04 | 96 | 1004.6 |
| 20260509115723 | 47 | 160 | 0.0 | 3.0 | 0.00 | 0.04 | 0.04 | 96 | 1004.5 |
| 20260509115227 | 47 | 142 | 0.0 | 2.0 | 0.00 | 0.04 | 0.04 | 96 | 1004.4 |
| 20260509114454 | 47 | 162 | 0.0 | 2.0 | 0.00 | 0.04 | 0.04 | 96 | 1004.2 |
| 20260509113953 | 47 | 96 | 0.0 | 1.0 | 0.00 | 0.04 | 0.04 | 96 | 1004.2 |
| 20260509113454 | 46 | 155 | 0.0 | 1.0 | 0.00 | 0.04 | 0.04 | 96 | 1004.1 |
| 20260509112954 | 46 | 162 | 0.0 | 0.0 | 0.00 | 0.04 | 0.04 | 96 | 1004.0 |
| 20260509112457 | 46 | 162 | 0.0 | 0.0 | 0.01 | 0.04 | 0.04 | 96 | 1003.8 |
| 20260509112452 | 46 | 162 | 0.0 | 0.0 | 0.00 | 0.04 | 0.04 | 96 | 1003.9 |
| 20260509111454 | 46 | 162 | 0.0 | 0.0 | 0.01 | 0.04 | 0.04 | 95 | 1003.7 |
| 20260509110957 | 46 | 63 | 0.0 | 0.0 | 0.01 | 0.04 | 0.04 | 95 | 1003.5 |
| 20260509110451 | 46 | 62 | 0.0 | 0.0 | 0.02 | 0.04 | 0.04 | 95 | 1003.4 |
| 20260509105952 | 46 | 62 | 0.0 | 0.0 | 0.02 | 0.04 | 0.04 | 95 | 1003.3 |
| 20260509105452 | 47 | 64 | 0.0 | 0.0 | 0.02 | 0.04 | 0.04 | 95 | 1003.1 |
| 20260509105224 | 47 | 64 | 0.0 | 0.0 | 0.02 | 0.04 | 0.04 | 95 | 1003.1 |
| 20260509104451 | 47 | 63 | 0.0 | 0.0 | 0.02 | 0.04 | 0.04 | 95 | 1003.1 |
| 20260509103950 | 47 | 64 | 0.0 | 0.0 | 0.02 | 0.04 | 0.04 | 95 | 1003.1 |
| 20260509103452 | 47 | 63 | 0.0 | 0.0 | 0.03 | 0.04 | 0.04 | 95 | 1003.0 |
| 20260509102950 | 47 | 64 | 0.0 | 0.0 | 0.03 | 0.04 | 0.04 | 94 | 1002.9 |
| 20260509102450 | 47 | 63 | 0.0 | 0.0 | 0.03 | 0.04 | 0.04 | 94 | 1002.6 |
| 20260509101952 | 47 | 64 | 0.0 | 0.0 | 0.03 | 0.03 | 0.03 | 94 | 1003.0 |
| 20260509101720 | 47 | 315 | 0.0 | 0.0 | 0.03 | 0.03 | 0.03 | 94 | 1002.6 |
| 20260509100948 | 47 | 315 | 0.0 | 0.0 | 0.02 | 0.02 | 0.02 | 93 | 1002.7 |
| 20260509100722 | 47 | 314 | 0.0 | 0.0 | 0.02 | 0.02 | 0.02 | 93 | 1002.8 |
| 20260509095949 | 48 | 315 | 0.0 | 0.0 | 0.02 | 0.02 | 0.02 | 92 | 1002.7 |
| 20260509095449 | 48 | 314 | 0.0 | 0.0 | 0.02 | 0.02 | 0.02 | 92 | 1002.7 |
| 20260509094948 | 48 | 315 | 0.0 | 1.0 | 0.02 | 0.02 | 0.02 | 91 | 1002.6 |
| 20260509094719 | 48 | 315 | 0.0 | 1.0 | 0.02 | 0.02 | 0.02 | 90 | 1002.6 |
| 20260509093950 | 49 | 136 | 0.0 | 1.0 | 0.02 | 0.02 | 0.02 | 89 | 1002.7 |
| 20260509093450 | 49 | 140 | 0.0 | 1.0 | 0.01 | 0.01 | 0.01 | 86 | 1002.9 |
| 20260509093215 | 50 | 57 | 0.0 | 1.0 | 0.01 | 0.01 | 0.01 | 84 | 1003.0 |
| 20260509092445 | 50 | 68 | 0.0 | 4.0 | 0.01 | 0.01 | 0.01 | 82 | 1003.1 |
| 20260509091945 | 51 | 79 | 0.0 | 4.0 | 0.00 | 0.00 | 0.00 | 77 | 1003.2 |
| 20260509091445 | 52 | 1 | 0.0 | 2.0 | 0.00 | 0.00 | 0.00 | 73 | 1003.2 |
| 20260509090945 | 52 | 351 | 0.0 | 1.0 | 0.00 | 0.00 | 0.00 | 70 | 1003.1 |
| 20260509090446 | 52 | 16 | 0.0 | 1.0 | 0.00 | 0.00 | 0.00 | 67 | 1003.1 |
| 20260509085944 | 52 | 15 | 0.0 | 1.0 | 0.00 | 0.00 | 0.00 | 65 | 1002.8 |
| 20260509085444 | 52 | 15 | 0.0 | 1.0 | 0.00 | 0.00 | 0.00 | 64 | 1002.5 |
| 20260509084946 | 53 | 17 | 0.0 | 1.0 | 0.00 | 0.00 | 0.00 | 62 | 1002.6 |
| 20260509084442 | 53 | 18 | 0.0 | 2.0 | 0.00 | 0.00 | 0.00 | 62 | 1002.7 |
| 20260509083941 | 53 | 338 | 0.0 | 2.0 | 0.00 | 0.00 | 0.00 | 61 | 1002.8 |
| 20260509083712 | 53 | 50 | 0.0 | 2.0 | 0.00 | 0.00 | 0.00 | 60 | 1002.7 |
| 20260509082940 | 53 | 16 | 1.0 | 7.0 | 0.00 | 0.00 | 0.00 | 59 | 1002.7 |
| 20260509082440 | 53 | 25 | 1.0 | 7.0 | 0.00 | 0.00 | 0.00 | 59 | 1002.7 |
| 20260509081940 | 52 | 6 | 1.0 | 6.0 | 0.00 | 0.00 | 0.00 | 59 | 1002.7 |
| 20260509081442 | 52 | 39 | 1.0 | 6.0 | 0.00 | 0.00 | 0.00 | 60 | 1002.6 |
| 20260509080942 | 51 | 30 | 0.0 | 3.0 | 0.00 | 0.00 | 0.00 | 60 | 1002.6 |
| 20260509080442 | 50 | 321 | 0.0 | 4.0 | 0.00 | 0.00 | 0.00 | 60 | 1002.5 |
| 20260509075940 | 50 | 118 | 0.0 | 4.0 | 0.00 | 0.00 | 0.00 | 61 | 1002.5 |
| 20260509075440 | 49 | 187 | 0.0 | 1.0 | 0.00 | 0.00 | 0.00 | 61 | 1002.5 |
| 20260509074950 | 49 | 135 | 0.0 | 2.0 | 0.00 | 0.00 | 0.00 | 60 | 1002.4 |
| 20260509074941 | 49 | 136 | 0.0 | 1.0 | 0.00 | 0.00 | 0.00 | 62 | 1002.5 |
| 20260509073942 | 49 | 205 | 0.0 | 2.0 | 0.00 | 0.00 | 0.00 | 59 | 1002.2 |
| 20260509073440 | 49 | 126 | 0.0 | 2.0 | 0.00 | 0.00 | 0.00 | 61 | 1002.2 |
| 20260509073214 | 49 | 147 | 0.0 | 0.0 | 0.00 | 0.00 | 0.00 | 66 | 1002.0 |
| 20260509072447 | 49 | 147 | 0.0 | 0.0 | 0.00 | 0.00 | 0.00 | 61 | 1002.1 |
| 20260509072443 | 49 | 146 | 0.0 | 0.0 | 0.00 | 0.00 | 0.00 | 65 | 1002.0 |
| 20260509071444 | 49 | 147 | 0.0 | 0.0 | 0.00 | 0.00 | 0.00 | 61 | 1002.1 |
| 20260509070940 | 48 | 147 | 0.0 | 0.0 | 0.00 | 0.00 | 0.00 | 61 | 1002.0 |
| 20260509070442 | 48 | 146 | 0.0 | 0.0 | 0.00 | 0.00 | 0.00 | 63 | 1002.1 |
| 20260509065941 | 49 | 146 | 0.0 | 0.0 | 0.00 | 0.00 | 0.00 | 61 | 1002.1 |
| 20260509065441 | 49 | 147 | 0.0 | 0.0 | 0.00 | 0.00 | 0.00 | 59 | 1002.1 |
| 20260509064940 | 49 | 146 | 0.0 | 0.0 | 0.00 | 0.00 | 0.00 | 56 | 1002.2 |
| 20260509064713 | 49 | 146 | 0.0 | 0.0 | 0.00 | 0.00 | 0.00 | 55 | 1002.1 |
| 20260509063942 | 48 | 147 | 0.0 | 0.0 | 0.00 | 0.00 | 0.00 | 55 | 1002.2 |
| 20260509063441 | 48 | 146 | 0.0 | 0.0 | 0.00 | 0.00 | 0.00 | 57 | 1002.1 |
| 20260509062934 | 48 | 146 | 0.0 | 0.0 | 0.00 | 0.00 | 0.00 | 58 | 1002.1 |
| 20260509062428 | 48 | 147 | 0.0 | 0.0 | 0.00 | 0.00 | 0.00 | 58 | 1001.8 |
| 20260509061927 | 48 | 146 | 0.0 | 1.0 | 0.00 | 0.00 | 0.00 | 59 | 1002.1 |
| 20260509061429 | 48 | 146 | 0.0 | 1.0 | 0.00 | 0.00 | 0.00 | 59 | 1002.1 |
| 20260509060926 | 50 | 103 | 0.0 | 0.0 | 0.00 | 0.00 | 0.00 | 55 | 1002.1 |
| 20260509060428 | 50 | 103 | 0.0 | 0.0 | 0.00 | 0.00 | 0.00 | 50 | 1002.0 |
| 20260509055926 | 50 | 103 | 0.0 | 0.0 | 0.00 | 0.00 | 0.00 | 50 | 1001.9 |
| 20260509055429 | 50 | 103 | 0.0 | 0.0 | 0.00 | 0.00 | 0.00 | 49 | 1001.9 |
| 20260509055155 | 50 | 103 | 0.0 | 0.0 | 0.00 | 0.00 | 0.00 | 50 | 1002.0 |
| 20260509054420 | 50 | 103 | 0.0 | 0.0 | 0.00 | 0.00 | 0.00 | 50 | 1002.1 |
| 20260509053918 | 49 | 103 | 0.0 | 0.0 | 0.00 | 0.00 | 0.00 | 51 | 1002.2 |
| 20260509053415 | 49 | 103 | 0.0 | 0.0 | 0.00 | 0.00 | 0.00 | 52 | 1002.3 |
| 20260509052913 | 48 | 103 | 0.0 | 0.0 | 0.00 | 0.00 | 0.00 | 53 | 1002.4 |
| 20260509052410 | 49 | 103 | 0.0 | 0.0 | 0.00 | 0.00 | 0.00 | 53 | 1002.4 |
| 20260509052141 | 49 | 103 | 0.0 | 0.0 | 0.00 | 0.00 | 0.00 | 52 | 1002.5 |
| 20260509051409 | 49 | 103 | 0.0 | 0.0 | 0.00 | 0.00 | 0.00 | 51 | 1002.6 |
| 20260509050910 | 49 | 103 | 0.0 | 0.0 | 0.00 | 0.00 | 0.00 | 50 | 1002.5 |
| 20260509050406 | 49 | 103 | 0.0 | 0.0 | 0.00 | 0.00 | 0.00 | 50 | 1002.5 |
| 20260509045909 | 49 | 103 | 0.0 | 1.0 | 0.00 | 0.00 | 0.00 | 51 | 1002.4 |
| 20260509045408 | 48 | 103 | 0.0 | 0.0 | 0.00 | 0.00 | 0.00 | 51 | 1002.8 |
| 20260509045403 | 47 | 103 | 0.0 | 1.0 | 0.00 | 0.00 | 0.00 | 51 | 1002.6 |
| 20260509044350 | 48 | 103 | 0.0 | 0.0 | 0.00 | 0.00 | 0.00 | 51 | 1002.7 |
| 20260509043845 | 49 | 103 | 0.0 | 0.0 | 0.00 | 0.00 | 0.00 | 50 | 1002.8 |
| 20260509043339 | 49 | 103 | 0.0 | 0.0 | 0.00 | 0.00 | 0.00 | 49 | 1002.8 |
| 20260509043103 | 50 | 103 | 0.0 | 0.0 | 0.00 | 0.00 | 0.00 | 49 | 1002.9 |
| 20260509042326 | 50 | 103 | 0.0 | 0.0 | 0.00 | 0.00 | 0.00 | 49 | 1002.9 |
| 20260509041821 | 50 | 103 | 0.0 | 0.0 | 0.00 | 0.00 | 0.00 | 49 | 1002.9 |
| 20260509041314 | 50 | 103 | 0.0 | 0.0 | 0.00 | 0.00 | 0.00 | 49 | 1002.9 |
| 20260509040809 | 51 | 103 | 0.0 | 0.0 | 0.00 | 0.00 | 0.00 | 47 | 1002.9 |
| 20260509040534 | 51 | 129 | 0.0 | 1.0 | 0.00 | 0.00 | 0.00 | 47 | 1003.1 |
| 20260509035756 | 51 | 129 | 0.0 | 1.0 | 0.00 | 0.00 | 0.00 | 46 | 1003.1 |
| 20260509035522 | 52 | 129 | 0.0 | 2.0 | 0.00 | 0.00 | 0.00 | 47 | 1003.1 |
| 20260509034745 | 52 | 113 | 0.0 | 2.0 | 0.00 | 0.00 | 0.00 | 46 | 1003.1 |
| 20260509034239 | 52 | 194 | 0.0 | 0.0 | 0.00 | 0.00 | 0.00 | 46 | 1003.1 |
| 20260509033733 | 53 | 194 | 0.0 | 1.0 | 0.00 | 0.00 | 0.00 | 45 | 1003.0 |
| 20260509033227 | 53 | 194 | 0.0 | 1.0 | 0.00 | 0.00 | 0.00 | 44 | 1003.0 |
| 20260509032721 | 54 | 110 | 0.0 | 1.0 | 0.00 | 0.00 | 0.00 | 44 | 1002.9 |
| 20260509032446 | 54 | 201 | 0.0 | 1.0 | 0.00 | 0.00 | 0.00 | 44 | 1002.9 |
| 20260509031708 | 55 | 149 | 0.0 | 2.0 | 0.00 | 0.00 | 0.00 | 42 | 1003.0 |
| 20260509031202 | 55 | 225 | 0.0 | 2.0 | 0.00 | 0.00 | 0.00 | 41 | 1002.8 |
| 20260509030656 | 56 | 197 | 0.0 | 5.0 | 0.00 | 0.00 | 0.00 | 40 | 1002.9 |
| 20260509030151 | 56 | 103 | 0.0 | 5.0 | 0.00 | 0.00 | 0.00 | 41 | 1002.8 |
| 20260509025916 | 56 | 165 | 0.0 | 3.0 | 0.00 | 0.00 | 0.00 | 40 | 1002.7 |
| 20260509025139 | 57 | 257 | 0.0 | 3.0 | 0.00 | 0.00 | 0.00 | 40 | 1002.7 |
| 20260509024633 | 57 | 100 | 0.0 | 4.0 | 0.00 | 0.00 | 0.00 | 40 | 1002.7 |
| 20260509024127 | 58 | 329 | 0.0 | 4.0 | 0.00 | 0.00 | 0.00 | 40 | 1002.7 |
| 20260509023620 | 58 | 180 | 0.0 | 3.0 | 0.00 | 0.00 | 0.00 | 39 | 1002.7 |
| 20260509023345 | 58 | 133 | 0.0 | 3.0 | 0.00 | 0.00 | 0.00 | 39 | 1002.6 |
| 20260509022608 | 59 | 100 | 0.0 | 3.0 | 0.00 | 0.00 | 0.00 | 38 | 1002.5 |
| 20260509022102 | 59 | 130 | 1.0 | 5.0 | 0.00 | 0.00 | 0.00 | 39 | 1002.4 |
| 20260509021556 | 60 | 115 | 1.0 | 6.0 | 0.00 | 0.00 | 0.00 | 37 | 1002.3 |
| 20260509021050 | 60 | 11 | 1.0 | 6.0 | 0.00 | 0.00 | 0.00 | 36 | 1002.2 |
| 20260509020542 | 61 | 74 | 1.0 | 8.0 | 0.00 | 0.00 | 0.00 | 37 | 1002.1 |
| 20260509020306 | 61 | 12 | 2.0 | 12.0 | 0.00 | 0.00 | 0.00 | 37 | 1002.0 |
| 20260509015534 | 61 | 172 | 1.0 | 12.0 | 0.00 | 0.00 | 0.00 | 37 | 1001.9 |
| 20260509015020 | 60 | 72 | 0.0 | 4.0 | 0.00 | 0.00 | 0.00 | 39 | 1001.8 |
| 20260509014514 | 61 | 120 | 0.0 | 6.0 | 0.00 | 0.00 | 0.00 | 39 | 1001.5 |
| 20260509014008 | 62 | 91 | 1.0 | 6.0 | 0.00 | 0.00 | 0.00 | 38 | 1001.5 |